[[{"header":{"parameterUnit":"m.s-1","parameterCategory":1,"la1":30.2991,"la2":30.254,"lo1":-89.0895,"lo2":-89.0444,"dy":0.0017,"dx":0.0017,"nx":28,"ny":28,"refTime":"2023-08-15T09:00:00:Z","depth":0,"parameterNumber":2,"parameterNumberName":"U-component_of_WINDS"},"data":[0,0,0,0,0,0,0,0,0,0,0,0,0,0,0,0,0,0,0,0,0,0,0,0,0,0,0,0,0,0,0,0,0,0,0,0,0,0,0,0,0,0,0,0,0,0,0,0,0,0,0,0,0,0,0,0,0,0,-0.4979,-0.4978,0,-0.4916,-0.4915,-0.4915,-0.4805,-0.4803,-0.4801,-0.4799,-0.4738,-0.4738,-0.4738,0,0,0,0,0,0,0,0,0,0,0,0,0,-0.5007,-0.5007,-0.4979,-0.4978,-0.4977,-0.4916,-0.4915,-0.4914,-0.4806,-0.4803,-0.4801,-0.4798,-0.4737,-0.4738,-0.4738,0,0,0,0,0,0,0,0,0,0,0,0,0,-0.4975,-0.5007,-0.4979,-0.4916,-0.4909,-0.4916,-0.4915,-0.4914,-0.4806,-0.4803,-0.48,-0.4797,-0.4737,-0.4738,-0.4738,-0.4803,0,0,-0.4739,-0.474,0,0,0,0,0,0,0,0,-0.4977,-0.4974,-0.4926,-0.492,-0.4913,-0.4865,-0.4903,-0.4877,-0.4807,-0.4846,-0.4799,-0.4796,-0.4783,-0.4779,-0.4774,-0.48,-0.4797,-0.4739,-0.474,-0.474,-0.474,0,0,0,0,0,0,0,-0.4979,-0.4976,-0.4954,-0.4925,-0.4917,-0.4891,-0.4883,-0.4897,-0.4832,-0.4842,-0.4834,-0.4828,-0.4779,-0.4774,-0.4772,-0.4796,-0.4739,-0.474,-0.474,-0.474,-0.4872,-0.4875,0,0,0,0,0,0,-0.4991,-0.4979,-0.4956,-0.4952,-0.4938,-0.4893,-0.4884,-0.4884,-0.4832,-0.4821,-0.483,-0.4823,-0.4775,-0.4772,-0.477,-0.4841,-0.474,-0.474,-0.4741,-0.4869,-0.4873,-0.4876,0,0,0,0,0,0,-0.4992,-0.499,-0.4959,-0.4963,-0.4957,-0.4896,-0.4896,-0.4884,-0.4879,-0.4823,-0.4811,-0.4838,-0.4772,-0.4769,-0.4795,-0.4838,-0.474,-0.4741,-0.4865,-0.487,-0.4874,-0.4986,0,0,0,0,0,0,-0.4993,-0.4991,-0.5014,-0.4965,-0.4958,-0.4985,-0.4899,-0.4885,-0.488,-0.487,-0.4827,-0.4817,-0.477,-0.4795,-0.4796,-0.4837,-0.4741,-0.4861,-0.4867,-0.4873,-0.4978,-0.4994,-0.5008,0,0,0,0,0,-0.4994,-0.5048,-0.5016,-0.5013,-0.4985,-0.4988,-0.4983,-0.4928,-0.4884,-0.4907,-0.4871,-0.4818,-0.4833,-0.4799,-0.4798,-0.484,-0.4858,-0.4865,-0.4872,-0.4972,-0.4991,-0.5008,0,0,0,0,0,0,-0.5105,-0.5041,-0.5004,-0.5043,-0.5022,-0.4969,-0.4996,-0.495,-0.4941,-0.4931,-0.4863,-0.4855,-0.489,-0.4867,-0.483,-0.49,-0.4837,-0.4845,-0.4913,-0.4931,-0.4945,-0.495,-0.4742,0,0,0,0,0,-0.5134,-0.514,-0.5084,-0.5125,-0.5116,-0.5059,-0.5057,-0.5016,-0.4991,-0.4982,-0.4947,-0.4926,-0.4926,-0.4927,-0.4924,-0.4975,-0.4964,-0.5004,-0.5018,-0.5031,-0.5038,-0.5063,-0.508,-0.49,-0.49,-0.49,0,0,-0.5194,-0.516,-0.5168,-0.5146,-0.5124,-0.5133,-0.5051,-0.5064,-0.507,-0.4984,-0.5006,-0.4981,-0.4952,-0.4991,-0.5007,-0.4974,-0.5086,-0.504,-0.505,-0.5051,-0.5073,-0.509,-0.5105,-0.4905,-0.4904,-0.4903,0,0,-0.5308,-0.5282,-0.5313,-0.5293,-0.5261,-0.5223,-0.5231,-0.5185,-0.5164,-0.5186,-0.5121,-0.5128,-0.5129,-0.5111,-0.5103,-0.5211,-0.5162,-0.5212,-0.5289,-0.5314,-0.5329,-0.5341,-0.5379,-0.5394,-0.522,-0.522,-0.522,0,-0.5386,-0.5396,-0.5335,-0.5352,-0.5344,-0.5266,-0.5297,-0.5281,-0.5251,-0.5248,-0.5211,-0.5211,-0.5186,-0.522,-0.5246,-0.5242,-0.5249,-0.5216,-0.5331,-0.5343,-0.5354,-0.5389,-0.5404,-0.5226,-0.5225,-0.5225,-0.5224,0,-0.5495,-0.5503,-0.5532,-0.5503,-0.5499,-0.5523,-0.5466,-0.547,-0.543,-0.5395,-0.5419,-0.5386,-0.5375,-0.538,-0.5342,-0.5409,-0.539,-0.5344,-0.5279,-0.5378,-0.5411,-0.5424,-0.5235,-0.5233,-0.5231,-0.5229,0,0,-0.5675,-0.5613,-0.5624,-0.561,-0.557,-0.5575,-0.5597,-0.5585,-0.5589,-0.5571,-0.5587,-0.559,-0.5547,-0.5538,-0.5496,-0.5519,-0.5607,-0.547,-0.5468,-0.5496,-0.5679,-0.5714,-0.5731,-0.5574,-0.5576,-0.5578,-0.5681,0,-0.578,-0.5811,-0.5757,-0.5801,-0.5808,-0.5734,-0.5753,-0.5731,-0.57,-0.5702,-0.5668,-0.5671,-0.5614,-0.5608,-0.5627,-0.5592,-0.5642,-0.5584,-0.5589,-0.559,-0.5598,-0.5748,-0.5784,-0.5883,-0.5694,-0.5696,-0.5698,0,-0.5905,-0.5893,-0.5938,-0.5895,-0.5895,-0.5913,-0.5898,-0.5901,-0.5875,-0.5851,-0.5841,-0.5791,-0.581,-0.5748,-0.5773,-0.5734,-0.5734,-0.5717,-0.5719,-0.5717,-0.5649,-0.5749,-0.5913,-0.5928,-0.5717,-0.5715,-0.5714,0,-0.6032,-0.6027,-0.6053,-0.6043,-0.5994,-0.6008,-0.5988,-0.5958,-0.5955,-0.5943,-0.594,-0.5931,-0.5926,-0.592,-0.587,-0.583,-0.5901,-0.5835,-0.5882,-0.5883,-0.59,-0.5899,-0.6065,-0.5901,-0.59,-0.59,-0.59,0,-0.6154,-0.6185,-0.6109,-0.6125,-0.6157,-0.6095,-0.6129,-0.6102,-0.6077,-0.6087,-0.6023,-0.6034,-0.5968,-0.5972,-0.5933,-0.596,-0.5958,-0.594,-0.5929,-0.5945,-0.5947,-0.5943,-0.5935,-0.5904,-0.5903,-0.5902,-0.5902,0,-0.6301,-0.6251,-0.6275,-0.6226,-0.6215,-0.6241,-0.6199,-0.6213,-0.6178,-0.6192,-0.6191,-0.6137,-0.6139,-0.6089,-0.608,-0.6054,-0.6098,-0.6075,-0.6107,-0.6099,-0.6149,-0.6145,-0.6317,-0.6337,-0.6161,-0.6162,-0.6164,0,-0.6382,-0.6403,-0.6357,-0.6358,-0.6342,-0.6346,-0.6342,-0.6283,-0.6281,-0.6253,-0.627,-0.6267,-0.626,-0.6267,-0.6227,-0.6221,-0.6197,-0.6258,-0.6196,-0.6212,-0.6198,-0.6197,-0.6199,-0.6271,-0.6274,-0.6275,-0.6277,0,-0.653,-0.6505,-0.6501,-0.6489,-0.6486,-0.6475,-0.6459,-0.6464,-0.64,-0.6402,-0.6402,-0.6398,-0.6389,-0.6387,-0.6373,-0.6353,-0.6305,-0.6297,-0.6307,-0.6324,-0.6341,-0.6332,-0.6142,-0.6293,-0.6291,-0.629,-0.6289,-0.6289,-0.6645,-0.6661,-0.6631,-0.6629,-0.6611,-0.6598,-0.6608,-0.6575,-0.6574,-0.6562,-0.6527,-0.6534,-0.6508,-0.6484,-0.6469,-0.6474,-0.6444,-0.6459,-0.6463,-0.6467,-0.6477,-0.6341,-0.6472,-0.6471,-0.647,-0.647,-0.647,0,-0.679,-0.6767,-0.6766,-0.6746,-0.6745,-0.6699,-0.668,-0.6682,-0.6688,-0.6668,-0.6663,-0.6664,-0.6662,-0.6622,-0.6615,-0.6627,-0.6604,-0.6627,-0.6625,-0.6622,-0.6504,-0.6496,-0.6645,-0.6645,-0.6645,-0.6645,-0.6645,-0.6645,-0.6865,-0.6889,-0.6861,-0.6875,-0.6852,-0.6858,-0.685,-0.6838,-0.6821,-0.6825,-0.6823,-0.6797,-0.6769,-0.676,-0.6756,-0.6744,-0.6744,-0.6774,-0.6756,-0.6647,-0.663,-0.6614,-0.6605,-0.6775,-0.6775,-0.6872,-0.6873,-0.6874]},{"header":{"parameterUnit":"m.s-1","parameterCategory":1,"la1":30.2991,"la2":30.254,"lo1":-89.0895,"lo2":-89.0444,"dy":0.0017,"dx":0.0017,"nx":28,"ny":28,"refTime":"2023-08-15T09:00:00:Z","depth":0,"parameterNumber":3,"parameterNumberName":"V-component_of_WINDS"},"data":[0,0,0,0,0,0,0,0,0,0,0,0,0,0,0,0,0,0,0,0,0,0,0,0,0,0,0,0,0,0,0,0,0,0,0,0,0,0,0,0,0,0,0,0,0,0,0,0,0,0,0,0,0,0,0,0,0,0,2.3841,2.384,0,2.3798,2.3798,2.3797,2.3768,2.3768,2.3768,2.3768,2.3723,2.3722,2.3721,0,0,0,0,0,0,0,0,0,0,0,0,0,2.3893,2.3892,2.3841,2.384,2.384,2.3798,2.3798,2.3797,2.3768,2.3768,2.3768,2.3767,2.3723,2.3722,2.3721,0,0,0,0,0,0,0,0,0,0,0,0,0,2.3863,2.3892,2.3841,2.382,2.3818,2.3799,2.3798,2.3797,2.3768,2.3768,2.3768,2.3767,2.3723,2.3722,2.3721,2.3718,0,0,2.3716,2.3715,0,0,0,0,0,0,0,0,2.3864,2.3861,2.3824,2.3822,2.3819,2.3788,2.38,2.3771,2.3768,2.3787,2.3768,2.3767,2.3745,2.3741,2.3734,2.3716,2.3714,2.3716,2.3715,2.3714,2.3714,0,0,0,0,0,0,0,2.3867,2.3862,2.3824,2.3823,2.382,2.3812,2.3807,2.3794,2.3768,2.3785,2.3783,2.3779,2.3743,2.3736,2.3733,2.3713,2.3716,2.3715,2.3714,2.3713,2.3686,2.3687,0,0,0,0,0,0,2.3872,2.3864,2.3825,2.3823,2.3841,2.3811,2.3806,2.3798,2.3768,2.3763,2.3779,2.3777,2.3738,2.3735,2.3731,2.3724,2.3714,2.3713,2.3712,2.3686,2.3686,2.3687,0,0,0,0,0,0,2.3873,2.3869,2.3827,2.3843,2.3837,2.3811,2.3802,2.3798,2.379,2.3763,2.3758,2.3776,2.3738,2.3733,2.3721,2.3722,2.3712,2.3711,2.3686,2.3686,2.3687,2.371,0,0,0,0,0,0,2.3875,2.387,2.3869,2.3843,2.3836,2.3818,2.3803,2.3797,2.3788,2.3785,2.3759,2.3755,2.3737,2.3723,2.3719,2.372,2.371,2.3686,2.3686,2.3686,2.3709,2.3711,2.3713,0,0,0,0,0,2.3877,2.3878,2.387,2.3865,2.3835,2.3819,2.3815,2.3795,2.3788,2.3787,2.3769,2.3756,2.3722,2.3722,2.3717,2.3717,2.3686,2.3686,2.3686,2.3708,2.3711,2.3713,0,0,0,0,0,0,2.3906,2.3875,2.3865,2.3858,2.3841,2.3814,2.3812,2.3799,2.3783,2.3782,2.3757,2.3752,2.3741,2.3728,2.3728,2.3711,2.3702,2.3702,2.372,2.3722,2.3724,2.3727,2.3709,0,0,0,0,0,2.3911,2.3901,2.3874,2.387,2.3862,2.3838,2.383,2.3816,2.3798,2.3791,2.3772,2.3754,2.3739,2.373,2.3715,2.3707,2.3699,2.3704,2.3706,2.3708,2.3708,2.3699,2.37,2.3688,2.3688,2.3688,0,0,2.3923,2.3904,2.3899,2.3875,2.3861,2.3849,2.3833,2.3822,2.3813,2.3789,2.3776,2.3761,2.3739,2.3728,2.3722,2.3717,2.3709,2.3709,2.371,2.3709,2.37,2.3701,2.3702,2.3688,2.3688,2.3688,0,0,2.3937,2.3923,2.3917,2.3902,2.388,2.3864,2.3862,2.3836,2.3826,2.3812,2.3793,2.3781,2.3757,2.3741,2.373,2.3734,2.3721,2.373,2.374,2.3732,2.3733,2.3734,2.3733,2.3734,2.373,2.373,2.373,0,2.3953,2.3936,2.3915,2.3905,2.3894,2.3871,2.3864,2.385,2.3824,2.3817,2.3811,2.3778,2.3762,2.3745,2.3746,2.3738,2.3734,2.3733,2.3735,2.3735,2.3736,2.3735,2.3735,2.3731,2.3731,2.3731,2.3731,0,2.3956,2.3945,2.3942,2.3917,2.3906,2.3897,2.3873,2.3864,2.385,2.3834,2.3818,2.3797,2.3777,2.3772,2.3759,2.3752,2.3749,2.374,2.373,2.3738,2.3737,2.3737,2.3733,2.3733,2.3732,2.3732,0,0,2.3989,2.3951,2.395,2.3937,2.391,2.39,2.3888,2.3868,2.3859,2.3842,2.383,2.3809,2.3799,2.3786,2.3771,2.3764,2.3766,2.3754,2.3753,2.3756,2.3754,2.3761,2.3762,2.3757,2.3756,2.3756,2.3756,0,2.3997,2.3977,2.3957,2.3943,2.393,2.3908,2.3897,2.3879,2.3863,2.3848,2.383,2.3814,2.3803,2.3795,2.3787,2.3767,2.3765,2.3767,2.3744,2.3744,2.375,2.3761,2.3769,2.377,2.3755,2.3755,2.3755,0,2.4006,2.3988,2.3973,2.3945,2.3938,2.393,2.3908,2.3895,2.3873,2.3861,2.3845,2.3829,2.3813,2.3805,2.3783,2.3785,2.3774,2.3762,2.3762,2.3758,2.375,2.3757,2.377,2.3769,2.3755,2.3755,2.3755,0,2.4028,2.4001,2.3988,2.3978,2.3945,2.3939,2.3925,2.3901,2.389,2.387,2.3861,2.384,2.3829,2.3812,2.3789,2.3785,2.3768,2.3758,2.3756,2.3757,2.3754,2.3754,2.3764,2.3748,2.3748,2.3748,2.3748,0,2.4039,2.4031,2.3997,2.3989,2.3978,2.3953,2.3942,2.3926,2.3905,2.3892,2.3871,2.3859,2.3829,2.3813,2.3795,2.3778,2.3773,2.3762,2.3757,2.3763,2.3764,2.3755,2.3754,2.3748,2.3748,2.3748,2.3748,0,2.4063,2.404,2.4024,2.3993,2.3985,2.3978,2.3951,2.3941,2.3923,2.3907,2.3901,2.3872,2.3852,2.3827,2.3799,2.3786,2.377,2.3764,2.3778,2.3775,2.3774,2.3774,2.3777,2.3776,2.3763,2.3763,2.3763,0,2.4071,2.4063,2.4032,2.4021,2.4008,2.3992,2.3979,2.3954,2.3942,2.3913,2.3906,2.3884,2.3865,2.3833,2.3809,2.3786,2.3778,2.378,2.3774,2.378,2.3776,2.3776,2.3774,2.3782,2.3782,2.3783,2.3783,0,2.4087,2.4075,2.4059,2.4037,2.4023,2.4004,2.3985,2.3978,2.3948,2.3935,2.3914,2.3899,2.3869,2.3846,2.382,2.3804,2.3787,2.3785,2.3783,2.3789,2.3797,2.3791,2.3781,2.3785,2.3785,2.3785,2.3784,2.3784,2.4101,2.4093,2.4069,2.405,2.4033,2.4015,2.4003,2.3983,2.3965,2.3939,2.3925,2.3904,2.3878,2.3841,2.3825,2.3807,2.3801,2.3799,2.3798,2.3798,2.3799,2.38,2.3802,2.3802,2.3802,2.3802,2.3802,0,2.4115,2.4098,2.4081,2.4054,2.4039,2.4025,2.4003,2.399,2.3972,2.395,2.3931,2.3905,2.3883,2.3856,2.3831,2.3821,2.3813,2.3815,2.3815,2.3811,2.3806,2.3809,2.3822,2.3822,2.3822,2.3822,2.3822,2.3822,2.412,2.4104,2.409,2.4064,2.4047,2.4026,2.4014,2.3996,2.3978,2.3951,2.3932,2.3915,2.389,2.3862,2.384,2.3833,2.3824,2.3828,2.3818,2.3814,2.3812,2.381,2.3813,2.3827,2.3827,2.3825,2.3825,2.3825]}]]